Location: Goulburn
(34.7479°S, 149.7277°E)
Time: 05:35:30
(UTC+11:00)

N. Korean satellite - Visible Passes

Search period start: 18 October 2019 00:00
Search period end: 28 October 2019 00:00
Orbit: 455 x 508 km, 97.2° (Epoch: 16 October)

Date Brightness Start Highest point End Pass type
(mag) Time Alt. Az. Time Alt. Az. Time Alt. Az.
19 Oct 9.3 05:36:05 10° NE 05:39:16 27° ESE 05:42:29 10° SSE visible
20 Oct 10.4 05:12:20 10° E 05:14:11 13° ESE 05:16:02 10° SE visible
20 Oct 10.1 19:47:48 10° SSW 19:50:05 16° WSW 19:52:19 10° WNW visible
23 Oct 9.8 05:28:37 10° ENE 05:31:32 22° ESE 05:34:27 10° SSE visible
24 Oct 10.7 05:05:37 10° E 05:06:28 11° ESE 05:07:18 10° SE visible
27 Oct 10.1 05:21:13 10° ENE 05:23:45 17° ESE 05:26:16 10° SSE visible
27 Oct 10.5 19:58:14 10° SW 19:59:33 12° WSW 20:00:52 10° W visible
